Kankakee, IL

11:29 AM CDT on October 18, 2017 (GMT -0500)
Greater Kankakee

Weather History for KIKK - March, 2012

Change the Weather History Date:

Wednesday, March 7, 2012

  Actual Average Record
Temperature  
Mean Temperature 60 °F -  
Max Temperature 69 °F 45 °F 75 °F (1983)
Min Temperature 51 °F 26 °F 9 °F (1986)
Degree Days  
Heating Degree Days 5    
Growing Degree Days 10 (Base 50)    
Moisture  
Dew Point 37 °F    
Average Humidity 45    
Maximum Humidity 54    
Minimum Humidity 41    
Precipitation  
Precipitation 0.00 in - - ()
Sea Level Pressure  
Sea Level Pressure 30.00 in    
Wind  
Wind Speed 22 mph (South)    
Max Wind Speed 34 mph    
Max Gust Speed 48 mph    
Visibility 10 miles    
Events      
Averages and records for this station are not official NWS values.
T = Trace of Precipitation, MM = Missing Value Source: NWS Daily Summary

Daily Weather History Graph

Daily Weather History Graph

Search for Another Location

Airport or City:

Trip Planner

Search our weather history database for the weather conditions in past years. The results will help you decide how hot, cold, wet, or windy it might be!

Date:

Astronomy

Mar. 07, 2012 Rise Set
Actual Time 6:15 AM CST 5:49 PM CST
Civil Twilight 5:47 AM CST 6:17 PM CST
Nautical Twilight 5:16 AM CST 6:49 PM CST
Astronomical Twilight 4:44 AM CST 7:21 PM CST
Moon 5:26 PM CST (3/7) 5:25 AM CST (3/7)
Length of Visible Light 12h 29m
Length of Day
11h 34m
Waxing Gibbous, 99% of the Moon is Illuminated
Mar 7
Waxing Gibbous
Mar 8
Full
Mar 14
Last Quarter
Mar 22
New
Mar 30
First Quarter

Hourly Weather History & Observations

Time (CST) Temp. Dew Point Humidity Pressure Visibility Wind Dir Wind Speed Gust Speed Precip Events Conditions
12:15 AM 54.1 °F 31.6 °F 42% 30.03 in 10.0 mi South 21.9 mph 27.6 mph N/A   Clear
12:35 AM 53.6 °F 30.2 °F 41% 30.04 in 10.0 mi South 18.4 mph 25.3 mph N/A   Clear
12:55 AM 52.9 °F 30.2 °F 42% 30.04 in 10.0 mi South 16.1 mph 24.2 mph N/A   Clear
1:15 AM 51.8 °F 30.2 °F 44% 30.05 in 10.0 mi South 13.8 mph 20.7 mph N/A   Clear
1:35 AM 51.8 °F 30.2 °F 44% 30.05 in 10.0 mi South 13.8 mph - N/A   Clear
1:55 AM 51.3 °F 29.3 °F 43% 30.05 in 10.0 mi South 15.0 mph 19.6 mph N/A   Clear
2:15 AM 51.3 °F 29.1 °F 43% 30.04 in 10.0 mi South 13.8 mph 19.6 mph N/A   Clear
2:35 AM 51.3 °F 29.1 °F 43% 30.05 in 10.0 mi South 15.0 mph 20.7 mph N/A   Clear
2:55 AM 51.3 °F 29.1 °F 43% 30.05 in 10.0 mi South 15.0 mph - N/A   Clear
3:15 AM 51.8 °F 28.4 °F 41% 30.05 in 10.0 mi South 18.4 mph - N/A   Mostly Cloudy
3:35 AM 52.0 °F 29.3 °F 42% 30.05 in 10.0 mi South 16.1 mph 21.9 mph N/A   Overcast
3:55 AM 52.0 °F 29.8 °F 43% 30.05 in 10.0 mi South 18.4 mph 25.3 mph N/A   Overcast
4:15 AM 51.8 °F 30.0 °F 43% 30.05 in 10.0 mi South 18.4 mph 23.0 mph N/A   Overcast
4:35 AM 51.8 °F 30.2 °F 44% 30.05 in 10.0 mi South 17.3 mph 25.3 mph N/A   Overcast
4:55 AM 51.6 °F 30.0 °F 44% 30.05 in 10.0 mi South 19.6 mph 28.8 mph N/A   Overcast
5:15 AM 51.4 °F 30.0 °F 44% 30.05 in 10.0 mi South 21.9 mph 26.5 mph N/A   Overcast
5:35 AM 51.8 °F 30.2 °F 44% 30.05 in 10.0 mi South 19.6 mph 27.6 mph N/A   Overcast
5:55 AM 51.8 °F 30.2 °F 44% 30.05 in 10.0 mi South 21.9 mph 27.6 mph N/A   Overcast
6:15 AM 51.8 °F 30.2 °F 44% 30.05 in 10.0 mi South 19.6 mph 26.5 mph N/A   Overcast
6:35 AM 51.1 °F 31.1 °F 46% 30.04 in 10.0 mi South 23.0 mph 27.6 mph N/A   Overcast
6:55 AM 51.3 °F 31.6 °F 47% 30.05 in 10.0 mi South 20.7 mph 27.6 mph N/A   Overcast
7:15 AM 51.4 °F 32.0 °F 47% 30.05 in 10.0 mi South 21.9 mph 27.6 mph N/A   Overcast
7:35 AM 52.5 °F 32.2 °F 46% 30.05 in 10.0 mi South 23.0 mph 28.8 mph N/A   Overcast
7:55 AM 53.8 °F 32.7 °F 45% 30.03 in 10.0 mi South 26.5 mph 33.4 mph N/A   Mostly Cloudy
8:15 AM 56.1 °F 33.4 °F 42% 30.03 in 10.0 mi South 32.2 mph 41.4 mph N/A   Scattered Clouds
8:35 AM 55.9 °F 34.0 °F 44% 30.03 in 10.0 mi South 24.2 mph 38.0 mph N/A   Unknown
8:55 AM 57.7 °F 34.7 °F 42% 30.02 in 10.0 mi South 26.5 mph 39.1 mph N/A   Clear
9:15 AM 59.2 °F 35.8 °F 42% 30.02 in 10.0 mi South 34.5 mph 41.4 mph N/A   Clear
9:35 AM 61.7 °F 37.8 °F 41% 30.02 in 10.0 mi South 28.8 mph 39.1 mph N/A   Scattered Clouds
9:55 AM 62.6 °F 38.5 °F 41% 30.02 in 10.0 mi SSW 29.9 mph 40.3 mph N/A   Scattered Clouds
10:15 AM 63.7 °F 40.3 °F 42% 30.02 in 10.0 mi SSW 23.0 mph 39.1 mph N/A   Scattered Clouds
10:35 AM 64.2 °F 42.8 °F 46% 30.01 in 10.0 mi SSW 33.4 mph 41.4 mph N/A   Mostly Cloudy
11:15 AM 63.5 °F 42.8 °F 47% 30.00 in 10.0 mi South 29.9 mph 39.1 mph N/A   Overcast
11:35 AM 64.4 °F 43.9 °F 47% 29.99 in 10.0 mi SSW 29.9 mph 38.0 mph N/A   Overcast
11:55 AM 65.5 °F 44.4 °F 46% 29.98 in 10.0 mi South 27.6 mph 33.4 mph N/A   Overcast
12:15 PM 64.6 °F 45.0 °F 49% 29.97 in 10.0 mi SSW 27.6 mph 36.8 mph N/A   Overcast
12:35 PM 64.6 °F 45.3 °F 50% 29.96 in 10.0 mi South 32.2 mph 41.4 mph N/A   Overcast
12:55 PM 64.9 °F 45.3 °F 49% 29.95 in 10.0 mi South 29.9 mph 42.6 mph N/A   Overcast
1:15 PM 66.6 °F 45.3 °F 46% 29.94 in 10.0 mi SSW 27.6 mph 42.6 mph N/A   Overcast
1:35 PM 67.3 °F 44.8 °F 44% 29.93 in 10.0 mi SSW 34.5 mph 44.9 mph N/A   Overcast
1:55 PM 68.4 °F 45.1 °F 43% 29.93 in 10.0 mi SSW 28.8 mph 41.4 mph N/A   Overcast
2:15 PM 68.9 °F 44.8 °F 42% 29.93 in 10.0 mi SSW 31.1 mph 48.3 mph N/A   Mostly Cloudy
2:35 PM 68.7 °F 44.2 °F 41% 29.93 in 10.0 mi SSW 28.8 mph 47.2 mph N/A   Mostly Cloudy
2:55 PM 69.3 °F 44.6 °F 41% 29.92 in 10.0 mi SSW 31.1 mph 44.9 mph N/A   Overcast
3:15 PM 66.6 °F 45.1 °F 46% 29.91 in 10.0 mi South 31.1 mph 40.3 mph N/A   Overcast
3:35 PM 66.4 °F 45.5 °F 47% 29.92 in 10.0 mi SSW 29.9 mph 38.0 mph N/A   Overcast
3:55 PM 65.8 °F 46.2 °F 49% 29.92 in 10.0 mi SSW 25.3 mph 41.4 mph N/A   Overcast
4:15 PM 65.7 °F 46.2 °F 49% 29.92 in 10.0 mi SSW 28.8 mph 41.4 mph N/A   Overcast
4:35 PM 65.3 °F 45.7 °F 49% 29.92 in 10.0 mi SSW 27.6 mph 40.3 mph N/A   Overcast
4:55 PM 64.8 °F 45.7 °F 50% 29.92 in 10.0 mi SSW 29.9 mph 39.1 mph N/A   Overcast
5:15 PM 64.6 °F 45.9 °F 51% 29.91 in 10.0 mi SSW 23.0 mph 38.0 mph N/A   Overcast
5:35 PM 64.6 °F 46.0 °F 51% 29.92 in 10.0 mi South 25.3 mph 40.3 mph N/A   Overcast
5:55 PM 63.9 °F 46.4 °F 53% 29.92 in 10.0 mi South 28.8 mph 42.6 mph N/A   Overcast
6:15 PM 63.3 °F 46.6 °F 54% 29.92 in 10.0 mi South 27.6 mph 36.8 mph N/A   Overcast
6:35 PM 62.6 °F 46.8 °F 56% 29.92 in 10.0 mi South 20.7 mph 28.8 mph N/A   Overcast
6:55 PM 62.2 °F 46.8 °F 57% 29.92 in 10.0 mi South 23.0 mph 31.1 mph N/A   Overcast
7:15 PM 62.2 °F 46.9 °F 57% 29.93 in 10.0 mi South 19.6 mph 26.5 mph N/A   Overcast
7:35 PM 62.4 °F 46.9 °F 57% 29.92 in 10.0 mi South 24.2 mph 29.9 mph N/A   Overcast
7:55 PM 62.6 °F 46.9 °F 57% 29.91 in 10.0 mi South 25.3 mph 32.2 mph N/A   Overcast
8:15 PM 62.6 °F 47.1 °F 57% 29.91 in 10.0 mi South 24.2 mph 33.4 mph N/A   Overcast
8:35 PM 62.6 °F 47.3 °F 57% 29.91 in 10.0 mi South 24.2 mph 33.4 mph N/A   Overcast
8:55 PM 62.2 °F 47.7 °F 59% 29.90 in 10.0 mi South 23.0 mph 31.1 mph N/A   Overcast
9:15 PM 62.6 °F 48.2 °F 59% 29.89 in 10.0 mi South 25.3 mph 31.1 mph N/A   Overcast
9:35 PM 62.6 °F 48.2 °F 59% 29.89 in 10.0 mi South 25.3 mph 32.2 mph N/A   Overcast
9:55 PM 62.4 °F 48.2 °F 60% 29.88 in 10.0 mi South 25.3 mph 32.2 mph N/A   Overcast
10:15 PM 61.9 °F 48.2 °F 61% 29.87 in 10.0 mi South 24.2 mph 28.8 mph N/A   Overcast
10:35 PM 62.1 °F 48.2 °F 60% 29.86 in 10.0 mi South 27.6 mph 31.1 mph N/A   Overcast
10:55 PM 62.6 °F 48.2 °F 59% 29.86 in 10.0 mi South 24.2 mph 31.1 mph N/A   Overcast
11:15 PM 62.6 °F 48.2 °F 59% 29.86 in 10.0 mi SSW 25.3 mph 32.2 mph N/A   Overcast
11:35 PM 62.8 °F 50.0 °F 63% 29.85 in 10.0 mi SSW 28.8 mph 41.4 mph N/A   Overcast
11:55 PM 61.5 °F 50.5 °F 67% 29.85 in 10.0 mi South 24.2 mph 33.4 mph N/A   Overcast